Location: Alsip
(41.6689°N, 87.7387°W)
Time: 14:39:42
(UTC+00:00)

Cosmos 724 - Pass Details

Date: 14 July 2020
Orbit: 858 x 936 km, 65.6° (Epoch: 13 August)

Event Time Altitude Azimuth Distance (km) Brightness Sun altitude
Exits shadow 06:08:13 68° 122° (ESE) 925 4.2 -26.7°
Maximum altitude 06:08:16 68° 118° (ESE) 924 4.2 -26.7°
Drops below altitude 10° 06:14:02 10° 37° (NE) 2,517 7.4 -26.6°
Sets 06:16:33 0° 35° (NE) 3,466 8.3 -26.6°
